Regional Weather Roundup
Issued by NWS Sterling, VA

Home | Current Version | Previous Version | Graphics & Text | Print | Product List | Glossary On
Versions: 1 2 3 4 5 6 7 8 9 10 11 12 13 14 15 16 17 18 19 20 21 22 23 24 25 26 27 28 29 30 31 32 33 34 35 36 37 38 39 40 41 42 43 44 45 46 47 48 49 50
000
ASUS41 KLWX 250111
RWRLWX

REGIONAL WEATHER ROUNDUP
NATIONAL WEATHER SERVICE BALTIMORE MD/WASHINGTON DC
900 PM EDT MON JUL 24 2017

Note: "FAIR" indicates few or no clouds below 12,000 feet
with no significant weather and/or obstructions to visibility.
 TC=TEMPERATURE CELSIUS

 * =Non NWS site. Station does not report precipitation (e.g. rain,
    snow, etc.), thunder, or fog.

DCZ001-MDZ009-015-VAZ040>042-051-053>054-250200-
WASHINGTON METRO

CITY           SKY/WX    TMP DP  RH WIND       PRES   REMARKS
WASHINGTON NAT MOCLDY    85  75  72 S8        29.82R HX  93
DULLES         CLOUDY    81  72  74 SW5       29.84R
ANDREWS AFB    CLEAR     79  73  79 S7        29.83R
FT BELVOIR     PTCLDY    81  73  76 CALM      29.82R
QUANTICO       LGT RAIN  86  73  65 SW5       29.83R HX  93
COLLEGE PARK*  PTCLDY    83  72  67 CALM      29.81R
LEESBURG*      CLOUDY    81  75  83 W5        29.86R
MANASSAS*      CLOUDY    79  73  82 CALM      29.84R
GAITHERSBURG*  MOCLDY    79  71  76 NW8       29.87R

$$

MDZ006>007-011-014-250200-
BALTIMORE METRO

CITY           SKY/WX    TMP DP  RH WIND       PRES   REMARKS
BWI AIRPORT    CLOUDY    80  75  84 CALM      29.80S
MD SCIENCE CTR   N/A     86  71  60 MISG      29.82R HX  91
MARTIN STATE   MOCLDY    84  75  74 S5        29.81S THUNDER HX  92
ANNAPOLIS      PTCLDY    85  75  72 S6        29.81S HX  93
FORT MEADE*    CLOUDY    75  73  94 CALM      29.84R

$$

MDZ012-015-019>023-250200-
MARYLAND EASTERN SHORE

CITY           SKY/WX    TMP DP  RH WIND       PRES   REMARKS
OCEAN CITY     CLEAR     78  73  84 S6        29.84F
SALISBURY      CLEAR     79  73  83 CALM      29.83F
BAY BRIDGE AP* PTCLDY    82  73  74 S7        29.81
CAMBRIDGE*     CLEAR     81  72  74 CALM      29.82S
EASTON*        PTCLDY    82  72  69 S5        29.86R

$$

MDZ017>025-250200-
SOUTHERN MARYLAND

CITY           SKY/WX    TMP DP  RH WIND       PRES   REMARKS
PATUXENT RIVER CLOUDY    80  76  87 S7        29.83S
ST INIGOES     PTCLDY    82  76  81 SE8       29.83S
LEONARDTOWN*   PTCLDY    79  72  78 SE3       29.86R

$$

MDZ003>005-250200-
NORTH CENTRAL MARYLAND

CITY           SKY/WX    TMP DP  RH WIND       PRES   REMARKS
FREDERICK*     NOT AVBL
HAGERSTOWN APT CLOUDY    80  67  64 NW10      29.86R
WESTMINSTER*   CLOUDY    79  70  73 SE5       29.88R

$$

MDZ501>502-250200-
WESTERN MARYLAND

CITY           SKY/WX    TMP DP  RH WIND       PRES   REMARKS
OAKLAND*       CLOUDY    64  61  88 NW7       30.00R
CUMBERLAND*    PTCLDY    79  63  57 NW9       29.94R

$$

VAZ025>031-250200-
SHENANDOAH VALLEY

CITY           SKY/WX    TMP DP  RH WIND       PRES   REMARKS
WINCHESTER*    MOCLDY    79  63  57 NW8       29.88R
FRONT ROYAL*   PTCLDY    82  63  51 W5        29.87R
LURAY*         PTCLDY    81  63  54 SW3       29.89R
NEW MARKET*    PTCLDY    74  65  72 CALM      29.90R
STAUNTON*      CLOUDY    77  63  61 CALM      29.95R
WAYNESBORO*    PTCLDY    80  63  56 SW7       29.95R

$$

WVZ021-048>050-054>055-250200-
EASTERN WEST VIRGINIA PANHANDLE

CITY           SKY/WX    TMP DP  RH WIND       PRES   REMARKS
MARTINSBURG    CLOUDY    80  65  59 NW8       29.86R
PETERSBURG*    CLOUDY    81  66  60 W9        29.93R

$$

VAZ036>039-050-250200-
CENTRAL FOOTHILLS

CITY           SKY/WX    TMP DP  RH WIND       PRES   REMARKS
CHARLOTTESVILL PTCLDY    82  69  64 VRB3      29.88R
CULPEPER*      CLOUDY    79  70  73 CALM      29.86R
ORANGE*        CLOUDY    77  70  78 CALM      29.86R
GORDONSVILLE*  CLOUDY    77  71  83 CALM      29.86R
WARRENTON*     MOCLDY    82  67  61 W3        29.84R

$$

VAZ055>057-250200-
NORTH AND CENTRAL PIEDMONT

CITY           SKY/WX    TMP DP  RH WIND       PRES   REMARKS
FREDERICKSBRG* MOCLDY    82  74  75 MISG      29.83R
STAFFORD*      PTCLDY    78  75  91 CALM      29.87S

$$

NCZ024-NYZ072-PAZ021-071-VAZ022-071-250200-
OTHER REGIONAL OBSERVATIONS

CITY           SKY/WX    TMP DP  RH WIND       PRES   REMARKS
NEW YORK CITY  MOCLDY    66  59  78 E8        29.91R
PHILADELPHIA   TSTM      71  68  90 VRB5      29.88R FOG
PITTSBURGH     MOCLDY    68  59  73 NW8       29.98R
ROANOKE        MOCLDY    84  62  47 NW12      29.99R
RICHMOND       MOCLDY    82  71  69 SW7       29.86R
RALEIGH        MOCLDY    82  68  62 S3        29.94R

$$

ANZ530>537-250200-
MARINE OBSERVATIONS

STATION/POSITION TIME  TEMP    WIND        PRES
                       AIR SEA DIR/SP/G
                 (UTC) (F)     (DEG/KT/KT) (MB)
THOMAS PT LIGHT  0100   84 84  190/ 14/ 15   N/A
BALT KEY BRIDGE  0042   83     200/  7/  8 1008.9S
COVE POINT       0042   83     190/ 15/ 18 1010.5F
LEWISETTA        0042   83 87  180/  7/  9 1010.3F
SOLOMONS ISLAND  0042   83 84  170/  9/ 11   N/A
PINEY POINT      0042          180/ 11/ 12   N/A

$$




USA.gov is the U.S. government's official web portal to all federal, state and local government web resources and services.